{"data":{"norad_id":41882,"intl_designator":"2016-077A","name":"FENGYUN 4A","alt_names":[],"object_type":"PAYLOAD","status":"ACTIVE","operator":null,"country":"PRC","launch_date":"2016-12-10","launch_site_code":"XICLF","launch_vehicle":null,"mission":null,"orbit_class":"UNKNOWN","rcs_meters":22.5893,"size_class":null,"mass_kg":null,"dimensions":null,"purposes":["comms","earth_obs"],"wikipedia_slug":null,"has_3d_model":false,"image_url":null,"decayed_at":null,"tle_current":{"epoch":"2026-05-24T23:11:53.377728Z","epoch_age_seconds":71238,"freshness":"FRESH","line1":"1 41882U 16077A   26144.96659002 -.00000359  00000+0  00000+0 0  9994","line2":"2 41882   2.2664  80.5234 0008430 146.1954 127.4013  1.00264496 34694","mean_motion":1.00264496,"eccentricity":0.000843,"inclination_deg":2.2664,"raan_deg":80.5234,"arg_perigee_deg":146.1954,"mean_anomaly_deg":127.4013,"bstar":0,"rev_number":3469,"period_min":1436.2013049963,"perigee_km":35753.091864569,"apogee_km":35824.185047988,"semimajor_km":42166.775456278,"source":"CELESTRAK","updated_at":"2026-05-25T13:38:14.010471Z"}}}